Year,Month,Day,Hour,Minute,Value (Times are PST for temperature in C)
2016,08,25,00,00,18.10
2016,08,25,00,01,18.10
2016,08,25,00,02,18.10
2016,08,25,00,03,18.10
2016,08,25,00,04,18.10
2016,08,25,00,05,18.10
2016,08,25,00,06,18.10
2016,08,25,00,07,18.10
2016,08,25,00,08,18.10
2016,08,25,00,09,18.10
2016,08,25,00,10,18.10
2016,08,25,00,11,18.10
2016,08,25,00,12,18.10
2016,08,25,00,13,18.10
2016,08,25,00,14,18.10
2016,08,25,00,15,18.10
2016,08,25,00,16,18.10
2016,08,25,00,17,17.90
2016,08,25,00,18,17.90
2016,08,25,00,19,17.90
2016,08,25,00,20,17.90
2016,08,25,00,21,17.90
2016,08,25,00,22,17.90
2016,08,25,00,23,17.90
2016,08,25,00,24,17.80
2016,08,25,00,25,17.70
2016,08,25,00,26,17.60
2016,08,25,00,27,17.60
2016,08,25,00,28,17.50
2016,08,25,00,29,17.50
2016,08,25,00,30,17.40
2016,08,25,00,31,17.40
2016,08,25,00,32,17.40
2016,08,25,00,33,17.30
2016,08,25,00,34,17.30
2016,08,25,00,35,17.30
2016,08,25,00,36,17.30
2016,08,25,00,37,17.30
2016,08,25,00,38,17.30
2016,08,25,00,39,17.30
2016,08,25,00,40,17.30
2016,08,25,00,41,17.20
2016,08,25,00,42,17.20
2016,08,25,00,43,17.20
2016,08,25,00,44,17.20
2016,08,25,00,46,17.20
2016,08,25,00,47,17.20
2016,08,25,00,48,17.10
2016,08,25,00,49,17.10
2016,08,25,00,51,17.10
2016,08,25,00,52,17.00
2016,08,25,00,53,17.00
2016,08,25,00,54,17.00
2016,08,25,00,56,16.90
2016,08,25,00,57,16.90
2016,08,25,00,58,16.80
2016,08,25,00,59,16.80
2016,08,25,01,01,16.70
2016,08,25,01,02,16.70
2016,08,25,01,03,16.70
2016,08,25,01,04,16.60
2016,08,25,01,06,16.60
2016,08,25,01,07,16.60
2016,08,25,01,08,16.60
2016,08,25,01,09,16.60
2016,08,25,01,11,16.40
2016,08,25,01,12,16.40
2016,08,25,01,13,16.40
2016,08,25,01,14,16.60
2016,08,25,01,16,16.60
2016,08,25,01,17,16.60
2016,08,25,01,18,16.40
2016,08,25,01,19,16.40
2016,08,25,01,21,16.40
2016,08,25,01,22,16.40
2016,08,25,01,23,16.40
2016,08,25,01,24,16.30
2016,08,25,01,26,16.20
2016,08,25,01,27,16.10
2016,08,25,01,28,16.10
2016,08,25,01,29,16.10
2016,08,25,01,31,15.90
2016,08,25,01,32,15.80
2016,08,25,01,33,15.80
2016,08,25,01,34,15.80
2016,08,25,01,36,15.70
2016,08,25,01,37,15.60
2016,08,25,01,38,15.60
2016,08,25,01,39,15.50
2016,08,25,01,41,15.50
2016,08,25,01,42,15.40
2016,08,25,01,43,15.40
2016,08,25,01,44,15.40
2016,08,25,01,46,15.30
2016,08,25,01,47,15.30
2016,08,25,01,48,15.30
2016,08,25,01,49,15.30
2016,08,25,01,51,15.30
2016,08,25,01,52,15.20
2016,08,25,01,53,15.20
2016,08,25,01,54,15.20
2016,08,25,01,56,15.20
2016,08,25,01,57,15.10
2016,08,25,01,58,15.10
2016,08,25,01,59,15.10
2016,08,25,02,01,15.00
2016,08,25,02,02,15.00
2016,08,25,02,03,15.00
2016,08,25,02,04,15.00
2016,08,25,02,06,14.90
2016,08,25,02,07,14.90
2016,08,25,02,08,14.90
2016,08,25,02,09,14.90
2016,08,25,02,11,14.80
2016,08,25,02,12,14.80
2016,08,25,02,13,14.80
2016,08,25,02,14,14.80
2016,08,25,02,15,14.80
2016,08,25,02,16,14.80
2016,08,25,02,17,14.80
2016,08,25,02,18,14.80
2016,08,25,02,19,14.80
2016,08,25,02,20,14.80
2016,08,25,02,21,14.80
2016,08,25,02,22,14.90
2016,08,25,02,23,14.90
2016,08,25,02,24,14.90
2016,08,25,02,25,14.90
2016,08,25,02,26,15.00
2016,08,25,02,27,15.00
2016,08,25,02,28,15.10
2016,08,25,02,29,15.10
2016,08,25,02,30,15.10
2016,08,25,02,31,15.10
2016,08,25,02,32,15.10
2016,08,25,02,33,15.10
2016,08,25,02,34,15.10
2016,08,25,02,35,15.10
2016,08,25,02,36,15.10
2016,08,25,02,37,15.10
2016,08,25,02,38,15.00
2016,08,25,02,39,15.00
2016,08,25,02,40,15.00
2016,08,25,02,41,15.00
2016,08,25,02,42,15.00
2016,08,25,02,43,14.90
2016,08,25,02,44,14.90
2016,08,25,02,45,14.90
2016,08,25,02,46,14.90
2016,08,25,02,47,14.90
2016,08,25,02,48,14.90
2016,08,25,02,49,14.90
2016,08,25,02,50,14.90
2016,08,25,02,51,15.00
2016,08,25,02,52,15.00
2016,08,25,02,53,15.10
2016,08,25,02,54,15.20
2016,08,25,02,55,15.20
2016,08,25,02,56,15.30
2016,08,25,02,57,15.30
2016,08,25,02,58,15.30
2016,08,25,02,59,15.30
2016,08,25,03,00,15.40
2016,08,25,03,01,15.40
2016,08,25,03,02,15.50
2016,08,25,03,03,15.50
2016,08,25,03,04,15.60
2016,08,25,03,05,15.60
2016,08,25,03,06,15.70
2016,08,25,03,07,15.80
2016,08,25,03,08,15.80
2016,08,25,03,09,15.80
2016,08,25,03,10,15.90
2016,08,25,03,11,16.10
2016,08,25,03,12,16.10
2016,08,25,03,13,16.20
2016,08,25,03,14,16.30
2016,08,25,03,15,16.40
2016,08,25,03,16,16.40
2016,08,25,03,17,16.40
2016,08,25,03,18,16.60
2016,08,25,03,19,16.60
2016,08,25,03,20,16.70
2016,08,25,03,21,16.70
2016,08,25,03,22,16.70
2016,08,25,03,23,16.70
2016,08,25,03,24,16.70
2016,08,25,03,25,16.70
2016,08,25,03,26,16.70
2016,08,25,03,27,16.70
2016,08,25,03,28,16.70
2016,08,25,03,29,16.70
2016,08,25,03,30,16.70
2016,08,25,03,31,16.70
2016,08,25,03,32,16.70
2016,08,25,03,33,16.70
2016,08,25,03,34,16.70
2016,08,25,03,35,16.60
2016,08,25,03,37,16.60
2016,08,25,03,38,16.60
2016,08,25,03,39,16.60
2016,08,25,03,41,16.60
2016,08,25,03,42,16.60
2016,08,25,03,43,16.40
2016,08,25,03,44,16.40
2016,08,25,03,46,16.40
2016,08,25,03,47,16.40
2016,08,25,03,48,16.40
2016,08,25,03,49,16.40
2016,08,25,03,51,16.30
2016,08,25,03,52,16.30
2016,08,25,03,53,16.30
2016,08,25,03,54,16.20
2016,08,25,03,56,16.20
2016,08,25,03,57,16.10
2016,08,25,03,58,16.10
2016,08,25,03,59,16.10
2016,08,25,04,01,15.90
2016,08,25,04,02,15.90
2016,08,25,04,03,15.80
2016,08,25,04,04,15.80
2016,08,25,04,06,15.80
2016,08,25,04,07,15.80
2016,08,25,04,08,15.80
2016,08,25,04,09,15.80
2016,08,25,04,11,15.70
2016,08,25,04,12,15.70
2016,08,25,04,13,15.70
2016,08,25,04,14,15.70
2016,08,25,04,16,15.60
2016,08,25,04,17,15.60
2016,08,25,04,18,15.60
2016,08,25,04,19,15.60
2016,08,25,04,21,15.60
2016,08,25,04,22,15.60
2016,08,25,04,23,15.60
2016,08,25,04,24,15.50
2016,08,25,04,26,15.50
2016,08,25,04,27,15.50
2016,08,25,04,28,15.50
2016,08,25,04,29,15.50
2016,08,25,04,31,15.50
2016,08,25,04,32,15.50
2016,08,25,04,33,15.50
2016,08,25,04,34,15.50
2016,08,25,04,36,15.50
2016,08,25,04,37,15.50
2016,08,25,04,38,15.50
2016,08,25,04,39,15.50
2016,08,25,04,41,15.50
2016,08,25,04,42,15.50
2016,08,25,04,43,15.50
2016,08,25,04,44,15.40
2016,08,25,04,46,15.40
2016,08,25,04,47,15.40
2016,08,25,04,48,15.40
2016,08,25,04,49,15.40
2016,08,25,04,51,15.40
2016,08,25,04,52,15.30
2016,08,25,04,53,15.30
2016,08,25,04,54,15.30
2016,08,25,04,55,15.30
2016,08,25,04,56,15.30
2016,08,25,04,57,15.30
2016,08,25,04,58,15.30
2016,08,25,04,59,15.30
2016,08,25,05,00,15.30
2016,08,25,05,01,15.30
2016,08,25,05,02,15.30
2016,08,25,05,03,15.30
2016,08,25,05,04,15.30
2016,08,25,05,06,15.30
2016,08,25,05,07,15.30
2016,08,25,05,08,15.30
2016,08,25,05,09,15.30
2016,08,25,05,10,15.30
2016,08,25,05,11,15.30
2016,08,25,05,12,15.30
2016,08,25,05,13,15.30
2016,08,25,05,14,15.30
2016,08,25,05,15,15.30
2016,08,25,05,16,15.30
2016,08,25,05,17,15.30
2016,08,25,05,18,15.30
2016,08,25,05,19,15.40
2016,08,25,05,20,15.40
2016,08,25,05,21,15.40
2016,08,25,05,22,15.40
2016,08,25,06,14,15.10
2016,08,25,06,15,15.10
2016,08,25,06,16,15.00
2016,08,25,06,17,15.00
2016,08,25,06,19,15.00
2016,08,25,06,21,15.00
2016,08,25,06,22,15.00
2016,08,25,06,23,15.00
2016,08,25,06,24,15.00
2016,08,25,06,26,14.90
2016,08,25,06,27,14.90
2016,08,25,06,28,14.90
2016,08,25,06,29,14.90
2016,08,25,06,31,15.00
2016,08,25,06,32,15.00
2016,08,25,06,33,15.00
2016,08,25,06,34,15.00
2016,08,25,06,36,14.90
2016,08,25,06,37,15.00
2016,08,25,06,38,15.00
2016,08,25,06,39,15.00
2016,08,25,06,41,15.10
2016,08,25,06,42,15.10
2016,08,25,06,43,15.10
2016,08,25,06,44,15.10
2016,08,25,06,46,15.10
2016,08,25,06,47,15.20
2016,08,25,06,48,15.20
2016,08,25,06,49,15.20
2016,08,25,06,51,15.20
2016,08,25,06,52,15.10
2016,08,25,06,53,15.10
2016,08,25,06,54,15.10
2016,08,25,06,56,15.10
2016,08,25,06,57,15.10
2016,08,25,06,58,15.10
2016,08,25,06,59,15.10
2016,08,25,07,01,15.10
2016,08,25,07,02,15.10
2016,08,25,07,03,15.10
2016,08,25,07,04,15.10
2016,08,25,07,06,15.10
2016,08,25,07,07,15.10
2016,08,25,07,08,15.10
2016,08,25,07,09,15.10
2016,08,25,07,11,15.10
2016,08,25,07,12,15.10
2016,08,25,07,13,15.10
2016,08,25,07,14,15.10
2016,08,25,07,16,15.10
2016,08,25,07,17,15.10
2016,08,25,07,18,15.10
2016,08,25,07,19,15.20
2016,08,25,07,21,15.30
2016,08,25,07,22,15.30
2016,08,25,07,23,15.30
2016,08,25,07,24,15.30
2016,08,25,07,26,15.30
2016,08,25,07,27,15.30
2016,08,25,07,28,15.30
2016,08,25,07,29,15.40
2016,08,25,07,31,15.50
2016,08,25,07,32,15.50
2016,08,25,07,33,15.50
2016,08,25,07,34,15.50
2016,08,25,07,36,15.60
2016,08,25,07,37,15.60
2016,08,25,07,38,15.60
2016,08,25,07,39,15.60
2016,08,25,07,41,15.60
2016,08,25,07,42,15.70
2016,08,25,07,43,15.70
2016,08,25,07,44,15.80
2016,08,25,07,46,15.80
2016,08,25,07,47,15.90
2016,08,25,07,48,15.90
2016,08,25,07,49,16.10
2016,08,25,07,50,16.10
2016,08,25,07,51,16.20
2016,08,25,07,52,16.30
2016,08,25,07,53,16.40
2016,08,25,07,54,16.40
2016,08,25,07,55,16.60
2016,08,25,07,56,16.60
2016,08,25,07,57,16.70
2016,08,25,07,58,16.70
2016,08,25,07,59,16.70
2016,08,25,08,00,16.80
2016,08,25,08,01,16.90
2016,08,25,08,02,16.90
2016,08,25,08,03,17.00
2016,08,25,08,04,17.10
2016,08,25,08,05,17.20
2016,08,25,08,06,17.30
2016,08,25,08,07,17.40
2016,08,25,08,08,17.60
2016,08,25,08,09,17.70
2016,08,25,08,10,17.90
2016,08,25,08,11,18.10
2016,08,25,08,12,18.20
2016,08,25,08,13,18.30
2016,08,25,08,14,18.40
2016,08,25,08,15,18.50
2016,08,25,08,16,18.60
2016,08,25,08,17,18.70
2016,08,25,08,18,18.80
2016,08,25,08,19,18.90
2016,08,25,08,20,19.10
2016,08,25,08,21,19.10
2016,08,25,08,22,19.10
2016,08,25,08,23,19.10
2016,08,25,08,24,19.10
2016,08,25,08,25,18.90
2016,08,25,08,26,18.90
2016,08,25,08,27,18.80
2016,08,25,08,28,18.70
2016,08,25,08,29,18.60
2016,08,25,08,30,18.60
2016,08,25,08,31,18.50
2016,08,25,08,32,18.50
2016,08,25,08,33,18.40
2016,08,25,08,34,18.40
2016,08,25,08,35,18.40
2016,08,25,08,36,18.40
2016,08,25,08,37,18.50
2016,08,25,08,38,18.60
2016,08,25,08,39,18.70
2016,08,25,08,40,18.80
2016,08,25,08,41,18.90
2016,08,25,08,42,19.10
2016,08,25,08,43,19.10
2016,08,25,08,44,19.30
2016,08,25,08,45,19.40
2016,08,25,08,47,19.60
2016,08,25,08,48,19.70
2016,08,25,08,49,19.80
2016,08,25,08,51,19.90
2016,08,25,08,52,20.10
2016,08,25,08,53,20.20
2016,08,25,08,54,20.30
2016,08,25,08,56,20.70
2016,08,25,08,57,20.90
2016,08,25,08,58,21.00
2016,08,25,08,59,21.20
2016,08,25,09,00,21.30
2016,08,25,09,02,21.40
2016,08,25,09,03,21.60
2016,08,25,09,04,21.60
2016,08,25,09,06,21.60
2016,08,25,09,07,21.70
2016,08,25,09,08,21.80
2016,08,25,09,09,21.90
2016,08,25,09,11,22.10
2016,08,25,09,12,22.20
2016,08,25,09,13,22.30
2016,08,25,09,14,22.30
2016,08,25,09,16,22.50
2016,08,25,09,17,22.60
2016,08,25,09,18,22.70
2016,08,25,09,19,22.80
2016,08,25,09,21,22.90
2016,08,25,09,22,22.90
2016,08,25,09,23,22.80
2016,08,25,09,24,22.80
2016,08,25,09,26,22.80
2016,08,25,09,27,22.70
2016,08,25,09,28,22.60
2016,08,25,09,29,22.50
2016,08,25,09,31,22.30
2016,08,25,09,32,22.30
2016,08,25,09,33,22.10
2016,08,25,09,34,22.00
2016,08,25,09,36,21.90
2016,08,25,09,37,21.80
2016,08,25,09,38,21.70
2016,08,25,09,39,21.70
2016,08,25,09,41,21.60
2016,08,25,09,42,21.60
2016,08,25,09,43,21.60
2016,08,25,09,44,21.60
2016,08,25,09,46,21.40
2016,08,25,09,47,21.60
2016,08,25,09,48,21.60
2016,08,25,09,49,21.60
2016,08,25,09,51,21.60
2016,08,25,09,52,21.70
2016,08,25,09,53,21.80
2016,08,25,09,54,21.80
2016,08,25,09,56,21.90
2016,08,25,09,57,21.90
2016,08,25,09,58,21.90
2016,08,25,09,59,21.90
2016,08,25,10,01,22.00
2016,08,25,10,02,22.00
2016,08,25,10,03,22.10
2016,08,25,10,04,22.10
2016,08,25,10,06,22.10
2016,08,25,10,07,22.10
2016,08,25,10,08,22.10
2016,08,25,10,09,22.10
2016,08,25,10,11,22.10
2016,08,25,10,12,22.10
2016,08,25,10,13,22.10
2016,08,25,10,14,22.10
2016,08,25,10,15,22.00
2016,08,25,10,16,22.00
2016,08,25,10,17,21.90
2016,08,25,10,18,21.90
2016,08,25,10,19,21.90
2016,08,25,10,21,21.80
2016,08,25,10,22,21.80
2016,08,25,10,23,21.80
2016,08,25,10,24,21.80
2016,08,25,10,25,21.80
2016,08,25,10,26,21.80
2016,08,25,10,27,21.80
2016,08,25,10,28,21.80
2016,08,25,10,29,21.80
2016,08,25,10,30,21.80
2016,08,25,10,31,21.80
2016,08,25,10,32,21.90
2016,08,25,10,34,21.90
2016,08,25,10,36,22.10
2016,08,25,10,37,22.10
2016,08,25,10,38,22.20
2016,08,25,10,39,22.30
2016,08,25,10,40,22.40
2016,08,25,10,41,22.40
2016,08,25,10,42,22.50
2016,08,25,10,43,22.50
2016,08,25,10,44,22.60
2016,08,25,10,45,22.60
2016,08,25,10,46,22.70
2016,08,25,10,47,22.70
2016,08,25,10,48,22.70
2016,08,25,10,49,22.70
2016,08,25,10,50,22.80
2016,08,25,10,51,22.80
2016,08,25,10,52,22.90
2016,08,25,10,53,22.90
2016,08,25,10,54,22.90
2016,08,25,10,55,22.90
2016,08,25,10,56,22.90
2016,08,25,10,57,22.90
2016,08,25,10,58,22.80
2016,08,25,10,59,22.80
2016,08,25,11,00,22.80
2016,08,25,11,01,22.80
2016,08,25,11,02,22.80
2016,08,25,11,03,22.90
2016,08,25,11,04,22.90
2016,08,25,11,05,22.90
2016,08,25,11,06,22.90
2016,08,25,11,07,22.90
2016,08,25,11,08,23.10
2016,08,25,11,09,23.10
2016,08,25,11,10,23.20
2016,08,25,11,11,23.20
2016,08,25,11,12,23.30
2016,08,25,11,13,23.30
2016,08,25,11,14,23.30
2016,08,25,11,15,23.40
2016,08,25,11,16,23.40
2016,08,25,11,17,23.40
2016,08,25,11,18,23.40
2016,08,25,11,19,23.30
2016,08,25,11,20,23.30
2016,08,25,11,21,23.30
2016,08,25,11,22,23.30
2016,08,25,11,23,23.20
2016,08,25,11,24,23.20
2016,08,25,11,25,23.20
2016,08,25,11,26,23.20
2016,08,25,11,27,23.20
2016,08,25,11,28,23.20
2016,08,25,11,29,23.30
2016,08,25,11,30,23.30
2016,08,25,11,31,23.30
2016,08,25,11,32,23.20
2016,08,25,11,33,23.10
2016,08,25,11,34,22.90
2016,08,25,11,35,22.90
2016,08,25,11,36,22.80
2016,08,25,11,37,22.80
2016,08,25,11,38,22.80
2016,08,25,11,39,22.90
2016,08,25,11,41,22.90
2016,08,25,11,43,23.10
2016,08,25,11,44,23.20
2016,08,25,11,46,23.30
2016,08,25,11,47,23.30
2016,08,25,11,48,23.30
2016,08,25,11,49,23.30
2016,08,25,11,51,22.90
2016,08,25,11,52,22.80
2016,08,25,11,53,22.70
2016,08,25,11,54,22.60
2016,08,25,11,56,22.40
2016,08,25,11,57,22.20
2016,08,25,11,58,22.10
2016,08,25,11,59,22.00
2016,08,25,12,01,21.70
2016,08,25,12,02,21.70
2016,08,25,12,03,21.60
2016,08,25,12,04,21.60
2016,08,25,12,06,21.70
2016,08,25,12,07,21.80
2016,08,25,12,08,21.80
2016,08,25,12,09,21.90
2016,08,25,12,11,22.10
2016,08,25,12,12,22.20
2016,08,25,12,13,22.30
2016,08,25,12,14,22.50
2016,08,25,12,16,22.70
2016,08,25,12,17,22.80
2016,08,25,12,18,22.90
2016,08,25,12,19,22.90
2016,08,25,12,21,23.20
2016,08,25,12,22,23.30
2016,08,25,12,23,23.30
2016,08,25,12,24,23.40
2016,08,25,12,26,23.70
2016,08,25,12,27,23.80
2016,08,25,12,28,24.10
2016,08,25,12,29,24.10
2016,08,25,12,31,23.90
2016,08,25,12,32,23.70
2016,08,25,12,33,23.60
2016,08,25,12,34,23.30
2016,08,25,12,36,23.10
2016,08,25,12,37,22.90
2016,08,25,12,38,22.90
2016,08,25,12,39,22.80
2016,08,25,12,41,22.60
2016,08,25,12,42,22.60
2016,08,25,12,43,22.50
2016,08,25,12,44,22.50
2016,08,25,12,46,22.50
2016,08,25,12,47,22.50
2016,08,25,12,48,22.60
2016,08,25,12,49,22.70
2016,08,25,12,51,22.90
2016,08,25,12,52,22.90
2016,08,25,12,53,23.10
2016,08,25,12,54,23.20
2016,08,25,12,56,23.30
2016,08,25,12,57,23.30
2016,08,25,12,58,23.30
2016,08,25,12,59,23.30
2016,08,25,13,01,23.30
2016,08,25,13,02,23.30
2016,08,25,13,03,23.30
2016,08,25,13,04,23.30
2016,08,25,13,06,23.20
2016,08,25,13,07,23.20
2016,08,25,13,08,23.20
2016,08,25,13,09,23.30
2016,08,25,13,11,23.30
2016,08,25,13,12,23.30
2016,08,25,13,13,23.30
2016,08,25,13,14,23.30
2016,08,25,13,15,23.30
2016,08,25,13,16,23.30
2016,08,25,13,17,23.30
2016,08,25,13,18,23.30
2016,08,25,13,19,23.30
2016,08,25,13,21,23.30
2016,08,25,13,22,23.30
2016,08,25,13,23,23.30
2016,08,25,13,24,23.30
2016,08,25,13,25,23.30
2016,08,25,13,26,23.30
2016,08,25,13,27,23.30
2016,08,25,13,28,23.30
2016,08,25,13,29,23.30
2016,08,25,13,30,23.30
2016,08,25,13,31,23.30
2016,08,25,13,32,23.30
2016,08,25,13,33,23.30
2016,08,25,13,34,23.30
2016,08,25,13,35,23.30
2016,08,25,13,36,23.30
2016,08,25,13,37,23.30
2016,08,25,13,38,23.30
2016,08,25,13,39,23.30
2016,08,25,13,40,23.30
2016,08,25,13,41,23.30
2016,08,25,13,42,23.30
2016,08,25,13,43,23.30
2016,08,25,13,44,23.30
2016,08,25,13,45,23.30
2016,08,25,13,46,23.30
2016,08,25,13,47,23.30
2016,08,25,13,48,23.30
2016,08,25,13,49,23.30
2016,08,25,13,50,23.30
2016,08,25,13,51,23.30
2016,08,25,13,52,23.30
2016,08,25,13,53,23.30
2016,08,25,13,54,23.30
2016,08,25,13,55,23.30
2016,08,25,13,56,23.20
2016,08,25,13,57,23.20
2016,08,25,13,58,23.20
2016,08,25,13,59,23.10
2016,08,25,14,00,23.10
2016,08,25,14,01,23.10
2016,08,25,14,02,23.10
2016,08,25,14,03,22.90
2016,08,25,14,04,22.90
2016,08,25,14,05,22.90
2016,08,25,14,06,22.90
2016,08,25,14,07,22.90
2016,08,25,14,08,22.90
2016,08,25,14,09,22.90
2016,08,25,14,10,22.90
2016,08,25,14,11,22.90
2016,08,25,14,12,22.90
2016,08,25,14,13,22.90
2016,08,25,14,14,22.90
2016,08,25,14,15,22.90
2016,08,25,14,16,22.90
2016,08,25,14,17,22.90
2016,08,25,14,18,22.90
2016,08,25,14,19,22.90
2016,08,25,14,20,23.10
2016,08,25,14,21,23.10
2016,08,25,14,22,23.20
2016,08,25,14,23,23.20
2016,08,25,14,24,23.30
2016,08,25,14,25,23.30
2016,08,25,14,26,23.30
2016,08,25,14,27,23.30
2016,08,25,14,28,23.30
2016,08,25,14,29,23.30
2016,08,25,14,30,23.30
2016,08,25,14,31,23.30
2016,08,25,14,32,23.30
2016,08,25,14,33,23.30
2016,08,25,14,34,23.30
2016,08,25,14,36,23.30
2016,08,25,14,37,23.40
2016,08,25,14,38,23.40
2016,08,25,14,39,23.40
2016,08,25,14,41,23.40
2016,08,25,14,42,23.60
2016,08,25,14,43,23.60
2016,08,25,14,44,23.60
2016,08,25,14,46,23.60
2016,08,25,14,47,23.70
2016,08,25,14,48,23.70
2016,08,25,14,49,23.70
2016,08,25,14,51,23.70
2016,08,25,14,52,23.80
2016,08,25,14,53,23.80
2016,08,25,14,54,23.90
2016,08,25,14,56,24.10
2016,08,25,14,57,24.10
2016,08,25,14,58,24.10
2016,08,25,14,59,24.20
2016,08,25,15,01,24.30
2016,08,25,15,02,24.30
2016,08,25,15,03,24.40
2016,08,25,15,04,24.40
2016,08,25,15,06,24.50
2016,08,25,15,07,24.60
2016,08,25,15,08,24.60
2016,08,25,15,09,24.60
2016,08,25,15,11,24.70
2016,08,25,15,12,24.80
2016,08,25,15,13,24.80
2016,08,25,15,14,24.90
2016,08,25,15,16,25.00
2016,08,25,15,17,25.00
2016,08,25,15,18,25.10
2016,08,25,15,19,25.10
2016,08,25,15,21,25.20
2016,08,25,15,22,25.20
2016,08,25,15,23,25.30
2016,08,25,15,24,25.30
2016,08,25,15,26,25.30
2016,08,25,15,27,25.30
2016,08,25,15,28,25.30
2016,08,25,15,29,25.30
2016,08,25,15,31,25.20
2016,08,25,15,32,25.20
2016,08,25,15,33,25.20
2016,08,25,15,34,25.20
2016,08,25,15,36,25.20
2016,08,25,15,37,25.20
2016,08,25,15,38,25.20
2016,08,25,15,39,25.30
2016,08,25,15,41,25.30
2016,08,25,15,42,25.30
2016,08,25,15,43,25.40
2016,08,25,15,44,25.40
2016,08,25,15,46,25.50
2016,08,25,15,47,25.50
2016,08,25,15,48,25.60
2016,08,25,15,49,25.60
2016,08,25,15,51,25.70
2016,08,25,15,52,25.70
2016,08,25,15,53,25.70
2016,08,25,15,54,25.80
2016,08,25,15,55,25.80
2016,08,25,15,56,25.70
2016,08,25,15,57,25.70
2016,08,25,15,58,25.70
2016,08,25,15,59,25.70
2016,08,25,16,00,25.70
2016,08,25,16,01,25.70
2016,08,25,16,02,25.70
2016,08,25,16,03,25.80
2016,08,25,16,04,25.80
2016,08,25,16,06,25.90
2016,08,25,16,07,25.90
2016,08,25,16,08,25.90
2016,08,25,16,09,25.90
2016,08,25,16,10,25.90
2016,08,25,16,11,25.90
2016,08,25,16,12,25.90
2016,08,25,16,13,25.90
2016,08,25,16,14,25.90
2016,08,25,16,15,26.00
2016,08,25,16,16,26.00
2016,08,25,16,17,26.00
2016,08,25,16,18,26.00
2016,08,25,16,19,26.00
2016,08,25,16,20,26.10
2016,08,25,16,21,26.10
2016,08,25,16,22,26.10
2016,08,25,16,23,26.20
2016,08,25,16,24,26.20
2016,08,25,16,25,26.30
2016,08,25,16,26,26.30
2016,08,25,16,27,26.30
2016,08,25,16,28,26.30
2016,08,25,16,29,26.30
2016,08,25,16,30,26.40
2016,08,25,16,31,26.40
2016,08,25,16,32,26.40
2016,08,25,16,33,26.30
2016,08,25,16,34,26.40
2016,08,25,16,35,26.40
2016,08,25,16,36,26.40
2016,08,25,16,37,26.40
2016,08,25,16,38,26.40
2016,08,25,16,39,26.40
2016,08,25,16,40,26.40
2016,08,25,16,41,26.40
2016,08,25,16,42,26.40
2016,08,25,16,43,26.60
2016,08,25,16,44,26.60
2016,08,25,16,45,26.60
2016,08,25,16,46,26.60
2016,08,25,16,47,26.60
2016,08,25,16,48,26.60
2016,08,25,16,49,26.60
2016,08,25,16,50,26.60
2016,08,25,16,51,26.60
2016,08,25,16,52,26.60
2016,08,25,16,53,26.60
2016,08,25,16,54,26.70
2016,08,25,16,55,26.70
2016,08,25,16,56,26.70
2016,08,25,16,57,26.70
2016,08,25,16,58,26.70
2016,08,25,16,59,26.70
2016,08,25,17,00,26.70
2016,08,25,17,01,26.70
2016,08,25,17,02,26.60
2016,08,25,17,03,26.60
2016,08,25,17,04,26.60
2016,08,25,17,05,26.40
2016,08,25,17,06,26.40
2016,08,25,17,07,26.30
2016,08,25,17,08,26.30
2016,08,25,17,09,26.30
2016,08,25,17,10,26.20
2016,08,25,17,11,26.20
2016,08,25,17,12,26.20
2016,08,25,17,13,26.20
2016,08,25,17,14,26.20
2016,08,25,17,15,26.20
2016,08,25,17,16,26.10
2016,08,25,17,17,26.10
2016,08,25,17,18,26.20
2016,08,25,17,19,26.20
2016,08,25,17,20,26.30
2016,08,25,17,21,26.40
2016,08,25,17,22,26.60
2016,08,25,17,23,26.70
2016,08,25,17,24,26.80
2016,08,25,17,25,26.90
2016,08,25,17,26,27.10
2016,08,25,17,27,27.20
2016,08,25,17,28,27.30
2016,08,25,17,29,27.30
2016,08,25,17,30,27.30
2016,08,25,17,32,27.30
2016,08,25,17,33,27.20
2016,08,25,17,34,27.10
2016,08,25,17,36,26.80
2016,08,25,17,37,26.70
2016,08,25,17,38,26.60
2016,08,25,17,39,26.60
2016,08,25,17,41,26.60
2016,08,25,17,42,26.60
2016,08,25,17,43,26.60
2016,08,25,17,44,26.60
2016,08,25,17,46,26.60
2016,08,25,17,47,26.60
2016,08,25,17,48,26.70
2016,08,25,17,49,26.80
2016,08,25,17,51,26.90
2016,08,25,17,52,27.10
2016,08,25,17,53,27.20
2016,08,25,17,54,27.30
2016,08,25,17,56,27.40
2016,08,25,17,57,27.60
2016,08,25,17,58,27.70
2016,08,25,17,59,27.70
2016,08,25,18,01,27.60
2016,08,25,18,02,27.30
2016,08,25,18,03,27.20
2016,08,25,18,04,26.90
2016,08,25,18,06,26.40
2016,08,25,18,07,26.20
2016,08,25,18,08,26.00
2016,08,25,18,09,25.80
2016,08,25,18,11,25.60
2016,08,25,18,12,25.40
2016,08,25,18,13,25.40
2016,08,25,18,14,25.30
2016,08,25,18,16,25.30
2016,08,25,18,17,25.30
2016,08,25,18,18,25.30
2016,08,25,18,19,25.40
2016,08,25,18,21,25.40
2016,08,25,18,22,25.40
2016,08,25,18,23,25.40
2016,08,25,18,24,25.40
2016,08,25,18,26,25.50
2016,08,25,18,27,25.50
2016,08,25,18,28,25.50
2016,08,25,18,29,25.50
2016,08,25,18,31,25.40
2016,08,25,18,32,25.40
2016,08,25,18,33,25.40
2016,08,25,18,34,25.40
2016,08,25,18,36,25.40
2016,08,25,18,37,25.40
2016,08,25,18,38,25.50
2016,08,25,18,39,25.50
2016,08,25,18,41,25.50
2016,08,25,18,42,25.50
2016,08,25,18,43,25.50
2016,08,25,18,44,25.40
2016,08,25,18,46,25.30
2016,08,25,18,47,25.20
2016,08,25,18,48,25.10
2016,08,25,18,49,24.90
2016,08,25,18,51,24.50
2016,08,25,18,52,24.40
2016,08,25,18,53,24.20
2016,08,25,18,54,24.10
2016,08,25,18,55,24.10
2016,08,25,18,56,23.80
2016,08,25,18,57,23.70
2016,08,25,18,58,23.70
2016,08,25,18,59,23.40
2016,08,25,19,00,23.30
2016,08,25,19,01,23.20
2016,08,25,19,02,23.10
2016,08,25,19,03,23.10
2016,08,25,19,04,22.90
2016,08,25,19,06,22.90
2016,08,25,19,07,22.90
2016,08,25,19,08,22.90
2016,08,25,19,09,22.90
2016,08,25,19,10,22.90
2016,08,25,19,11,22.90
2016,08,25,19,12,22.90
2016,08,25,19,13,22.90
2016,08,25,19,14,22.80
2016,08,25,19,15,22.80
2016,08,25,19,16,22.80
2016,08,25,19,17,22.90
2016,08,25,19,18,22.90
2016,08,25,19,19,22.90
2016,08,25,19,20,22.90
2016,08,25,19,21,22.90
2016,08,25,19,22,22.90
2016,08,25,19,23,22.90
2016,08,25,19,24,22.90
2016,08,25,19,25,22.90
2016,08,25,19,26,23.10
2016,08,25,19,27,23.10
2016,08,25,19,28,23.10
2016,08,25,19,29,23.10
2016,08,25,19,30,23.10
2016,08,25,19,31,23.10
2016,08,25,19,32,22.90
2016,08,25,19,33,22.90
2016,08,25,19,34,22.90
2016,08,25,19,35,22.90
2016,08,25,19,36,22.90
2016,08,25,19,37,22.80
2016,08,25,19,38,22.70
2016,08,25,19,39,22.70
2016,08,25,19,40,22.60
2016,08,25,19,41,22.60
2016,08,25,19,42,22.60
2016,08,25,19,43,22.50
2016,08,25,19,44,22.50
2016,08,25,19,45,22.50
2016,08,25,19,46,22.50
2016,08,25,19,47,22.40
2016,08,25,19,48,22.40
2016,08,25,19,49,22.40
2016,08,25,19,50,22.30
2016,08,25,19,51,22.30
2016,08,25,19,52,22.30
2016,08,25,19,53,22.20
2016,08,25,19,54,22.20
2016,08,25,19,55,22.20
2016,08,25,19,56,22.20
2016,08,25,19,57,22.20
2016,08,25,19,58,22.10
2016,08,25,19,59,22.10
2016,08,25,20,00,22.10
2016,08,25,20,01,22.10
2016,08,25,20,02,22.10
2016,08,25,20,03,22.10
2016,08,25,20,04,22.10
2016,08,25,20,05,22.00
2016,08,25,20,06,22.00
2016,08,25,20,07,22.00
2016,08,25,20,08,22.00
2016,08,25,20,09,21.90
2016,08,25,20,10,21.90
2016,08,25,20,11,21.90
2016,08,25,20,12,21.90
2016,08,25,20,13,21.90
2016,08,25,20,14,21.80
2016,08,25,20,15,21.80
2016,08,25,20,16,21.80
2016,08,25,20,17,21.70
2016,08,25,20,18,21.70
2016,08,25,20,19,21.70
2016,08,25,20,20,21.60
2016,08,25,20,21,21.60